星链-2198 (STARLINK-2198 )

导读 | 星芒AI

STARLINK-2198 是 SpaceX Starlink 项目中的一颗低轨通信卫星,旨在为全球用户提供高速互联网服务。该卫星于2023年发射,运行在约550公里高度的近地轨道,采用先进推进系统和激光通信技术,以提升网络连接效率与稳定性。作为 Starlink 卫星群的一部分,STARLINK-2198 有助于扩大覆盖范围,特别是在偏远和网络基础设施薄弱的地区,推动全球互联网普及。

基本信息
目录编号:
47775
目录名称:
STARLINK-2198
国际标识:
2021-017BF
轨道中心:
EARTH
卫星名称:
星链-2198
卫星全名:
星链-2198 (STARLINK-2198 )
卫星状态:
已陨落 最后检测时间 2025-01-20
发射日期:
2021-03-04 UTC
国别 :
美国 (US)
星等 :
--
轨道信息
数据来源 国际轨道数据
星历时间: 2025-01-21T05:02:54+0800
轨道信息已过期330天
半长轴: 6534.572km
偏心率: 0.0005873
轨道倾角: 53.021°
近地点辐角 262.337°
升交点赤经 238.839°
平近点角 179.747°
近地点: 152.599km
远地点: 160.275km
周期: 87.616分钟
每日圈数: 16.43528
详细信息
固有亮度:
5
最大亮度:
2.5
卫星平台:
Starlink V1.0
覆盖范围:
全球
运营商:
太空探索技术公司
运营商所在国:
美国
制造商(研发单位):
太空探索技术公司
制造商所在国:
美国
使用方式:
暂无
卫星简介
星链(Starlink)计划是由太空探索技术公司(SpaceX)提出的一个巨型低轨卫星互联网星座项目,计划在2019年至2024年间在太空搭建由约1.2万颗卫星组成的“星链”网络,其中1584颗将部署在地球上空550千米处的近地轨道,并从2020年开始工作。该卫星仍在工作。